Ionia, MI

11:56 PM EST on February 26, 2017 (GMT -0500)
Ionia

Weather History for KY70 - February, 2013

Change the Weather History Date:

Wednesday, February 13, 2013

  Actual Average (KGRR) Record (KGRR)
Temperature  
Mean Temperature 34 °F -  
Max Temperature 42 °F 31 °F 58 °F (1938)
Min Temperature 27 °F 16 °F -24 °F (1899)
Degree Days  
Heating Degree Days 30    
Moisture  
Dew Point 24 °F    
Average Humidity 68    
Maximum Humidity 78    
Minimum Humidity 49    
Precipitation  
Precipitation 0.00 in - - ()
Sea Level Pressure  
Sea Level Pressure 29.77 in    
Wind  
Wind Speed 8 mph (SW)    
Max Wind Speed 14 mph    
Max Gust Speed -    
Visibility 8 miles    
Events      
Averages and records for this station are not official NWS values.
T = Trace of Precipitation, MM = Missing Value Source: NWS Daily Summary

Daily Weather History Graph

Daily Weather History Graph

Search for Another Location

Airport or City:

Trip Planner

Search our weather history database for the weather conditions in past years. The results will help you decide how hot, cold, wet, or windy it might be!

Date:

Astronomy

Feb. 13, 2013 Rise Set
Actual Time 7:40 AM EST 6:09 PM EST
Civil Twilight 7:10 AM EST 6:38 PM EST
Nautical Twilight 6:37 AM EST 7:11 PM EST
Astronomical Twilight 6:04 AM EST 7:44 PM EST
Moon 9:02 AM EST (2/13) 10:19 PM EST (2/13)
Length of Visible Light 11h 27m
Length of Day
10h 29m
Waxing Crescent, 13% of the Moon is Illuminated
Feb 13
Waxing Crescent
Feb 17
First Quarter
Feb 25
Full
Mar 4
Last Quarter
Mar 11
New

Hourly Weather History & Observations

Time (EST) Temp. Windchill Dew Point Humidity Pressure Visibility Wind Dir Wind Speed Gust Speed Precip Events Conditions
12:13 AM 31.1 °F 24.5 °F 22.8 °F 71% 29.89 in 10.0 mi WSW 6.9 mph - N/A   Overcast
12:33 AM 31.1 °F 24.5 °F 22.8 °F 71% 29.89 in 10.0 mi WSW 6.9 mph - N/A   Overcast
12:53 AM 31.1 °F 23.7 °F 23.0 °F 72% 29.89 in 10.0 mi WSW 8.1 mph - N/A   Overcast
1:13 AM 31.1 °F 24.5 °F 22.6 °F 71% 29.89 in 10.0 mi WSW 6.9 mph - N/A   Overcast
1:34 AM 31.1 °F 21.9 °F 22.6 °F 71% 29.88 in 10.0 mi WSW 11.5 mph - N/A   Overcast
1:53 AM 31.1 °F 23.7 °F 22.6 °F 71% 29.87 in 10.0 mi WSW 8.1 mph - N/A   Overcast
2:14 AM 31.1 °F 23.7 °F 23.0 °F 72% 29.87 in 10.0 mi West 8.1 mph - N/A   Overcast
2:33 AM 31.1 °F 24.5 °F 22.8 °F 71% 29.87 in 10.0 mi West 6.9 mph - N/A   Overcast
2:54 AM 31.5 °F 22.3 °F 22.8 °F 70% 29.87 in 10.0 mi West 11.5 mph - N/A   Overcast
3:13 AM 31.5 °F 23.5 °F 22.5 °F 69% 29.87 in 10.0 mi West 9.2 mph - N/A   Overcast
3:34 AM 31.5 °F 23.5 °F 23.0 °F 71% 29.87 in 10.0 mi WSW 9.2 mph - N/A   Overcast
3:53 AM 31.5 °F 23.5 °F 23.0 °F 71% 29.86 in 10.0 mi WSW 9.2 mph - N/A   Overcast
4:14 AM 31.5 °F 25.8 °F 23.0 °F 71% 29.85 in 10.0 mi WSW 5.8 mph - N/A   Overcast
4:33 AM 30.9 °F 24.3 °F 22.6 °F 71% 29.84 in 10.0 mi West 6.9 mph - N/A   Overcast
4:54 AM 29.8 °F 24.9 °F 22.1 °F 73% 29.84 in 7.0 mi West 4.6 mph - N/A   Mostly Cloudy
5:13 AM 28.9 °F 25.2 °F 21.7 °F 74% 29.83 in 10.0 mi SSW 3.5 mph - N/A   Clear
5:33 AM 28.2 °F 22.0 °F 21.4 °F 76% 29.82 in 10.0 mi South 5.8 mph - N/A   Clear
5:53 AM 28.0 °F 20.8 °F 21.4 °F 76% 29.82 in 10.0 mi South 6.9 mph - N/A   Clear
6:13 AM 28.2 °F 20.2 °F 21.6 °F 76% 29.82 in 10.0 mi South 8.1 mph - N/A   Clear
6:33 AM 27.9 °F 19.8 °F 21.4 °F 77% 29.81 in 7.0 mi South 8.1 mph - N/A   Clear
6:53 AM 27.1 °F 19.7 °F 21.0 °F 78% 29.81 in 7.0 mi South 6.9 mph - N/A   Scattered Clouds
7:13 AM 28.0 °F 20.8 °F 21.9 °F 78% 29.80 in 7.0 mi South 6.9 mph - N/A   Overcast
7:33 AM 28.9 °F 22.8 °F 22.5 °F 77% 29.79 in 7.0 mi SSW 5.8 mph - N/A   Overcast
7:53 AM 29.8 °F 21.5 °F 22.6 °F 75% 29.79 in 7.0 mi SSW 9.2 mph - N/A   Overcast
8:13 AM 30.0 °F 21.7 °F 22.8 °F 75% 29.78 in 5.0 mi SSW 9.2 mph - N/A   Haze
8:33 AM 30.2 °F 21.9 °F 23.0 °F 75% 29.79 in 7.0 mi SSW 9.2 mph - N/A   Overcast
8:53 AM 30.7 °F 22.6 °F 23.0 °F 73% 29.79 in 7.0 mi SSW 9.2 mph - N/A   Overcast
9:13 AM 31.1 °F 22.4 °F 23.2 °F 72% 29.78 in 7.0 mi SSW 10.4 mph - N/A   Overcast
9:33 AM 31.5 °F 22.3 °F 23.4 °F 72% 29.78 in 7.0 mi South 11.5 mph - N/A   Overcast
9:53 AM 31.6 °F 22.6 °F 23.2 °F 71% 29.77 in 7.0 mi SSW 11.5 mph - N/A   Overcast
10:13 AM 31.8 °F 22.3 °F 23.5 °F 71% 29.77 in 7.0 mi SSW 12.7 mph - N/A   Overcast
10:33 AM 32.0 °F 22.1 °F 23.5 °F 71% 29.77 in 7.0 mi SSW 13.8 mph - N/A   Overcast
10:53 AM 32.0 °F 22.1 °F 23.9 °F 72% 29.78 in 7.0 mi SSW 13.8 mph - N/A   Overcast
11:13 AM 32.2 °F 22.3 °F 24.1 °F 72% 29.78 in 5.0 mi SSW 13.8 mph - N/A   Haze
11:33 AM 32.4 °F 23.0 °F 24.3 °F 72% 29.78 in 7.0 mi SSW 12.7 mph - N/A   Overcast
11:53 AM 32.4 °F 25.3 °F 23.9 °F 71% 29.78 in 5.0 mi SSW 8.1 mph - N/A   Haze
12:13 PM 33.8 °F 25.8 °F 23.7 °F 67% 29.77 in 7.0 mi SSW 10.4 mph - N/A   Overcast
12:33 PM 35.1 °F 28.6 °F 24.3 °F 65% 29.77 in 7.0 mi SSW 8.1 mph - N/A   Overcast
12:53 PM 35.8 °F 30.1 °F 24.3 °F 63% 29.76 in 7.0 mi South 6.9 mph - N/A   Mostly Cloudy
1:13 PM 37.2 °F 31.2 °F 23.9 °F 59% 29.74 in 7.0 mi SSW 8.1 mph - N/A   Mostly Cloudy
1:33 PM 38.1 °F 31.2 °F 24.4 °F 58% 29.73 in 7.0 mi SSW 10.4 mph - N/A   Scattered Clouds
1:53 PM 38.7 °F 31.8 °F 24.3 °F 56% 29.72 in 10.0 mi SSW 10.4 mph - N/A   Clear
2:13 PM 39.2 °F 34.2 °F 24.1 °F 55% 29.71 in 7.0 mi SSW 6.9 mph - N/A   Clear
2:33 PM 40.5 °F 35.1 °F 24.6 °F 53% 29.71 in 10.0 mi SW 8.1 mph - N/A   Clear
2:53 PM 41.0 °F 36.4 °F 24.6 °F 52% 29.70 in 10.0 mi SW 6.9 mph - N/A   Scattered Clouds
3:13 PM 41.7 °F 38.0 °F 25.0 °F 52% 29.70 in 7.0 mi WSW 5.8 mph - N/A   Overcast
3:33 PM 42.4 °F 37.0 °F 24.6 °F 49% 29.70 in 10.0 mi WSW 9.2 mph - N/A   Overcast
3:53 PM 42.3 °F 35.9 °F 25.3 °F 51% 29.70 in 10.0 mi West 11.5 mph - N/A   Overcast
4:13 PM 41.5 °F 35.9 °F 24.8 °F 51% 29.70 in 10.0 mi WSW 9.2 mph - N/A   Overcast
4:33 PM 41.4 °F 36.8 °F 25.0 °F 52% 29.70 in 10.0 mi SW 6.9 mph - N/A   Overcast
4:53 PM 41.5 °F 35.9 °F 25.3 °F 53% 29.70 in 10.0 mi WSW 9.2 mph - N/A   Overcast
5:13 PM 41.2 °F 36.6 °F 25.3 °F 53% 29.70 in 10.0 mi WSW 6.9 mph - N/A   Mostly Cloudy
5:33 PM 39.9 °F 35.8 °F 25.9 °F 57% 29.70 in 7.0 mi SW 5.8 mph - N/A   Scattered Clouds
5:53 PM 37.9 °F 33.5 °F 26.6 °F 64% 29.71 in 7.0 mi SW 5.8 mph - N/A   Clear
6:13 PM 37.8 °F 33.3 °F 26.2 °F 63% 29.71 in 7.0 mi WSW 5.8 mph - N/A   Scattered Clouds
6:33 PM 36.1 °F 31.4 °F 26.6 °F 68% 29.71 in 7.0 mi SW 5.8 mph - N/A   Clear
6:53 PM 36.7 °F 32.9 °F 26.6 °F 67% 29.72 in 10.0 mi SW 4.6 mph - N/A   Mostly Cloudy
7:13 PM 35.8 °F 31.9 °F 26.2 °F 68% 29.72 in 7.0 mi SW 4.6 mph - N/A   Mostly Cloudy
7:33 PM 35.8 °F 33.0 °F 26.6 °F 69% 29.72 in 7.0 mi WSW 3.5 mph - N/A   Overcast
7:53 PM 36.0 °F 33.3 °F 26.6 °F 69% 29.73 in 7.0 mi SW 3.5 mph - N/A   Overcast
8:13 PM 35.6 °F 31.7 °F 25.7 °F 67% 29.72 in 10.0 mi SSW 4.6 mph - N/A   Scattered Clouds
8:34 PM 34.5 °F 30.4 °F 26.2 °F 72% 29.72 in 7.0 mi SSW 4.6 mph - N/A   Scattered Clouds
8:53 PM 33.3 °F 27.9 °F 27.1 °F 78% 29.72 in 7.0 mi SSW 5.8 mph - N/A   Scattered Clouds
9:14 PM 33.8 °F 28.6 °F 26.8 °F 75% 29.72 in 7.0 mi South 5.8 mph - N/A   Overcast
9:33 PM 32.9 °F 27.5 °F 26.1 °F 76% 29.72 in 7.0 mi South 5.8 mph - N/A   Overcast
9:54 PM 34.7 °F 30.6 °F 26.2 °F 71% 29.72 in 7.0 mi South 4.6 mph - N/A   Overcast
10:13 PM 33.8 °F 27.7 °F 26.4 °F 74% 29.72 in 7.0 mi South 6.9 mph - N/A   Overcast
10:34 PM 34.7 °F 28.8 °F 25.5 °F 69% 29.72 in 7.0 mi South 6.9 mph - N/A   Overcast
10:53 PM 33.8 °F 27.7 °F 25.5 °F 72% 29.72 in 7.0 mi South 6.9 mph - N/A   Scattered Clouds
11:13 PM 33.4 °F 27.3 °F 25.7 °F 73% 29.72 in 7.0 mi South 6.9 mph - N/A   Mostly Cloudy
11:33 PM 33.8 °F 27.7 °F 25.7 °F 72% 29.72 in 7.0 mi South 6.9 mph - N/A   Scattered Clouds
11:53 PM 33.3 °F 27.1 °F 25.7 °F 74% 29.72 in 7.0 mi SSW 6.9 mph - N/A   Clear